TimeMDT,TemperatureF,Dew PointF,Humidity,Sea Level PressureIn,VisibilityMPH,Wind Direction,Wind SpeedMPH,Gust SpeedMPH,PrecipitationIn,Events,Conditions,WindDirDegrees,DateUTC
12:15 AM,60.4,54.0,79,30.39,10.0,NE,10.4,-,N/A,,Light Drizzle,40,2013-08-05 06:15:00
12:35 AM,59.4,54.7,84,30.40,10.0,NNE,10.4,19.6,N/A,,Overcast,20,2013-08-05 06:35:00
12:55 AM,59.9,53.8,80,30.38,10.0,North,15.0,23.0,N/A,,Overcast,350,2013-08-05 06:55:00
1:15 AM,61.2,52.7,74,30.37,10.0,North,17.3,23.0,N/A,,Scattered Clouds,360,2013-08-05 07:15:00
1:35 AM,60.3,53.6,79,30.37,10.0,NNW,8.1,-,N/A,,Scattered Clouds,330,2013-08-05 07:35:00
1:55 AM,60.1,53.6,79,30.37,10.0,North,6.9,-,N/A,,Scattered Clouds,360,2013-08-05 07:55:00
2:15 AM,60.1,53.8,80,30.37,10.0,North,5.8,-,N/A,,Mostly Cloudy,10,2013-08-05 08:15:00
2:35 AM,60.6,53.4,77,30.37,10.0,Calm,Calm,-,N/A,,Overcast,0,2013-08-05 08:35:00
2:55 AM,59.0,54.7,86,30.36,10.0,North,4.6,-,N/A,,Scattered Clouds,360,2013-08-05 08:55:00
3:15 AM,59.0,54.7,86,30.35,10.0,North,12.7,-,N/A,,Clear,350,2013-08-05 09:15:00
3:35 AM,59.9,54.1,81,30.35,10.0,NNW,10.4,-,N/A,,Clear,340,2013-08-05 09:35:00
3:55 AM,59.9,54.0,81,30.35,10.0,NNW,5.8,-,N/A,,Clear,340,2013-08-05 09:55:00
4:15 AM,59.9,54.0,81,30.35,10.0,NNW,4.6,-,N/A,,Clear,330,2013-08-05 10:15:00
4:35 AM,59.9,53.4,79,30.35,10.0,NW,4.6,-,N/A,,Clear,320,2013-08-05 10:35:00
4:55 AM,59.7,53.1,79,30.35,10.0,Calm,Calm,-,N/A,,Clear,0,2013-08-05 10:55:00
5:15 AM,59.9,52.3,76,30.34,10.0,North,5.8,-,N/A,,Clear,350,2013-08-05 11:15:00
5:35 AM,60.6,52.0,73,30.34,10.0,North,6.9,-,N/A,,Clear,10,2013-08-05 11:35:00
5:55 AM,60.8,51.8,72,30.35,10.0,North,5.8,-,N/A,,Clear,360,2013-08-05 11:55:00
6:15 AM,60.3,51.8,74,30.35,10.0,North,9.2,-,N/A,,Clear,350,2013-08-05 12:15:00
6:35 AM,60.3,52.0,74,30.35,10.0,North,5.8,-,N/A,,Clear,360,2013-08-05 12:35:00
6:55 AM,60.4,52.0,74,30.35,10.0,North,6.9,-,N/A,,Clear,360,2013-08-05 12:55:00
7:15 AM,60.8,52.2,73,30.35,10.0,North,6.9,-,N/A,,Clear,350,2013-08-05 13:15:00
7:35 AM,61.9,52.3,71,30.36,10.0,NNW,8.1,-,N/A,,Clear,340,2013-08-05 13:35:00
7:55 AM,63.0,52.9,70,30.36,10.0,NNW,5.8,-,N/A,,Clear,340,2013-08-05 13:55:00
8:15 AM,64.0,53.4,68,30.37,10.0,NE,4.6,-,N/A,,Clear,40,2013-08-05 14:15:00
8:35 AM,64.4,54.1,69,30.37,10.0,ENE,5.8,-,N/A,,Clear,60,2013-08-05 14:35:00
8:55 AM,64.2,54.9,72,30.37,10.0,NE,3.5,-,N/A,,Clear,50,2013-08-05 14:55:00
9:15 AM,65.5,55.6,70,30.37,10.0,NE,3.5,-,N/A,,Clear,40,2013-08-05 15:15:00
9:35 AM,66.0,56.3,71,30.36,10.0,North,5.8,-,N/A,,Clear,10,2013-08-05 15:35:00
9:55 AM,66.9,55.8,67,30.37,10.0,Calm,Calm,-,N/A,,Clear,0,2013-08-05 15:55:00
10:15 AM,68.0,55.2,64,30.37,10.0,Calm,Calm,-,N/A,,Clear,0,2013-08-05 16:15:00
10:35 AM,68.4,55.0,62,30.36,10.0,NE,5.8,-,N/A,,Clear,50,2013-08-05 16:35:00
10:55 AM,69.6,54.5,59,30.36,10.0,Calm,Calm,-,N/A,,Clear,0,2013-08-05 16:55:00
11:15 AM,70.2,55.2,59,30.37,10.0,NE,3.5,-,N/A,,Clear,50,2013-08-05 17:15:00
11:35 AM,70.3,55.2,59,30.36,10.0,Calm,Calm,-,N/A,,Clear,0,2013-08-05 17:35:00
11:55 AM,71.1,54.3,55,30.36,10.0,Calm,Calm,-,N/A,,Clear,0,2013-08-05 17:55:00
12:15 PM,73.4,55.2,53,30.35,10.0,SE,5.8,-,N/A,,Clear,130,2013-08-05 18:15:00
12:35 PM,74.1,55.9,53,30.34,10.0,Calm,Calm,-,N/A,,Clear,0,2013-08-05 18:35:00
12:55 PM,75.6,55.9,50,30.33,10.0,NNE,4.6,-,N/A,,Clear,30,2013-08-05 18:55:00
1:15 PM,76.6,55.8,48,30.33,10.0,ENE,3.5,-,N/A,,Scattered Clouds,60,2013-08-05 19:15:00
1:35 PM,77.7,54.5,45,30.32,10.0,NNW,4.6,-,N/A,,Scattered Clouds,330,2013-08-05 19:35:00
1:55 PM,75.9,54.3,47,30.31,10.0,NNW,6.9,-,N/A,,Scattered Clouds,330,2013-08-05 19:55:00
2:15 PM,71.2,56.5,60,30.32,10.0,WNW,9.2,-,N/A,Rain,Light Rain,300,2013-08-05 20:15:00
2:35 PM,70.0,54.0,57,30.30,10.0,West,5.8,-,0.01,Rain,Light Rain,270,2013-08-05 20:35:00
2:55 PM,72.0,56.8,59,30.30,10.0,West,6.9,-,0.01,,Scattered Clouds,280,2013-08-05 20:55:00
3:15 PM,73.9,56.5,54,30.29,10.0,West,4.6,-,N/A,,Clear,280,2013-08-05 21:15:00
3:35 PM,76.3,51.4,42,30.28,10.0,NW,4.6,-,N/A,,Clear,320,2013-08-05 21:35:00
3:55 PM,74.7,53.6,48,30.28,10.0,WNW,5.8,-,N/A,,Clear,290,2013-08-05 21:55:00
4:15 PM,75.4,54.7,48,30.27,10.0,WNW,4.6,-,N/A,,Clear,300,2013-08-05 22:15:00
4:35 PM,76.1,55.8,49,30.27,10.0,WNW,8.1,-,N/A,,Scattered Clouds,300,2013-08-05 22:35:00
4:55 PM,77.0,54.0,45,30.27,10.0,NW,4.6,-,N/A,,Clear,310,2013-08-05 22:55:00
5:15 PM,77.9,54.0,43,30.25,10.0,NW,3.5,-,N/A,,Clear,310,2013-08-05 23:15:00
5:35 PM,76.6,55.0,47,30.25,10.0,West,3.5,-,N/A,,Clear,280,2013-08-05 23:35:00
5:55 PM,75.2,56.3,52,30.25,10.0,WNW,5.8,-,N/A,,Scattered Clouds,300,2013-08-05 23:55:00
6:15 PM,74.3,52.3,46,30.24,10.0,WNW,12.7,-,N/A,,Scattered Clouds,300,2013-08-06 00:15:00
6:35 PM,70.3,53.2,55,30.26,10.0,WNW,11.5,17.3,N/A,Rain,Heavy Rain,290,2013-08-06 00:35:00
6:55 PM,64.6,54.1,69,30.27,10.0,East,11.5,21.9,N/A,Rain,Light Rain,80,2013-08-06 00:55:00
7:15 PM,64.4,53.4,67,30.26,10.0,North,8.1,-,N/A,,Mostly Cloudy,350,2013-08-06 01:15:00
7:35 PM,66.4,52.3,61,30.26,10.0,WNW,6.9,-,N/A,,Clear,290,2013-08-06 01:35:00
7:55 PM,67.6,51.4,56,30.26,10.0,WNW,10.4,-,N/A,,Clear,300,2013-08-06 01:55:00
8:15 PM,69.3,49.6,50,30.26,10.0,WNW,10.4,-,N/A,,Clear,290,2013-08-06 02:15:00
8:35 PM,71.6,45.5,39,30.26,10.0,WNW,9.2,-,N/A,,Clear,290,2013-08-06 02:35:00
8:55 PM,71.6,44.4,38,30.26,10.0,WNW,9.2,-,N/A,,Clear,290,2013-08-06 02:55:00
9:15 PM,70.9,44.4,39,30.26,10.0,West,5.8,-,N/A,,Clear,280,2013-08-06 03:15:00
9:35 PM,70.2,45.0,40,30.27,10.0,NNE,3.5,-,N/A,,Clear,20,2013-08-06 03:35:00
9:55 PM,67.1,49.1,52,30.28,10.0,Calm,Calm,-,N/A,,Clear,0,2013-08-06 03:55:00
10:15 PM,69.1,46.6,45,30.29,10.0,North,5.8,-,N/A,,Clear,360,2013-08-06 04:15:00
10:35 PM,68.4,46.6,46,30.29,10.0,NNW,6.9,-,N/A,,Clear,330,2013-08-06 04:35:00
10:55 PM,68.0,46.8,47,30.29,10.0,WNW,5.8,-,N/A,,Clear,290,2013-08-06 04:55:00
11:15 PM,69.1,45.5,43,30.29,10.0,WNW,5.8,-,N/A,,Clear,290,2013-08-06 05:15:00
11:35 PM,69.3,45.5,42,30.28,10.0,West,5.8,-,N/A,,Clear,280,2013-08-06 05:35:00
11:55 PM,68.0,47.1,47,30.29,10.0,West,5.8,-,N/A,,Clear,270,2013-08-06 05:55:00